星链-4659 (STARLINK-4659 )

导读 | 星芒AI

STARLINK-4659 是 SpaceX Starlink 项目中的一颗低轨通信卫星,属于第 52 批(Group 52)部署的星链卫星之一。该卫星于 2023 年 9 月发射,运行在约 550 公里的轨道高度,旨在为全球用户提供高速互联网服务。作为 Starlink 卫星群的一部分,它采用先进的相控阵天线和激光通信技术,提升网络覆盖与连接稳定性。该系统主要服务于偏远地区,同时支持军事与应急通信需求。

基本信息
目录编号:
54841
目录名称:
STARLINK-4659
国际标识:
2022-177X
轨道中心:
EARTH
卫星名称:
星链-4659
卫星全名:
星链-4659 (STARLINK-4659 )
卫星状态:
在轨 (已飞行1089 天)
发射日期:
2022-12-28 UTC
国别 :
美国 (US)
星等 :
--
轨道信息
数据来源 国际轨道数据 AOE轨道数据
星历时间 2025-12-21T05:12:07+0800
11小时前
查看轨道信息
2025-12-21T04:00:00+0800
12小时前
查看轨道信息
半长轴 6937.18km 6937.208km
偏心率 0.0001109 0.0001477
轨道倾角 43.002° 43.001°
近地点辐角 264.370° 239.911°
升交点赤经 201.297° 201.573°
平近点角 95.701° 208.951°
近地点 558.273km 558.046km
远地点 559.813km 560.096km
周期 95.837分钟 95.838分钟
每日圈数 15.025479 15.025389
详细信息
固有亮度:
5
最大亮度:
2.5
卫星平台:
Starlink v1.5
覆盖范围:
全球
运营商:
太空探索技术公司
运营商所在国:
美国
制造商(研发单位):
太空探索技术公司
制造商所在国:
美国
使用方式:
暂无
卫星简介
星链(Starlink)计划是由太空探索技术公司(SpaceX)提出的一个巨型低轨卫星互联网星座项目,计划在2019年至2024年间在太空搭建由约1.2万颗卫星组成的“星链”网络,其中1584颗将部署在地球上空550千米处的近地轨道,并从2020年开始工作。该卫星仍在工作。
2D轨道图
3D轨道图
轨道高度分析图
轨道倾角分析图
轨道综合分析图
查看轨道综合分析图